Location: Newark
(51.3000°N, 178.2000°W)
Time: 00:48:15
(UTC+00:00)

ISS - Pass Details

Date: 14 May 2021
Orbit: 417 x 422 km, 51.6° (Epoch: 15 June)

Event Time Altitude Azimuth Distance (km) Brightness Sun altitude
Rises 14:49:06 0° 284° (WNW) 2,375 -0.2 -9.6°
Reaches altitude 10° 14:51:21 10° 273° (W) 1,509 -1.3 -9.4°
Maximum altitude 14:54:21 30° 211° (SSW) 795 -2.9 -9.1°
Drops below altitude 10° 14:57:21 10° 149° (SSE) 1,504 -1.1 -8.7°
Sets 14:59:35 0° 138° (SE) 2,366 0.0 -8.5°
